Year,Month,Day,Hour,Minute,Value (Times are PST for temperature in C)
2008,06,24,00,00,15.20
2008,06,24,00,01,15.20
2008,06,24,00,02,15.20
2008,06,24,00,03,15.20
2008,06,24,00,04,15.30
2008,06,24,00,05,15.30
2008,06,24,00,06,15.30
2008,06,24,00,07,15.30
2008,06,24,00,08,15.30
2008,06,24,00,09,15.30
2008,06,24,00,10,15.30
2008,06,24,00,11,15.30
2008,06,24,00,12,15.30
2008,06,24,00,13,15.30
2008,06,24,00,14,15.30
2008,06,24,00,15,15.30
2008,06,24,00,16,15.30
2008,06,24,00,17,15.30
2008,06,24,00,18,15.30
2008,06,24,00,19,15.30
2008,06,24,00,20,15.30
2008,06,24,00,21,15.30
2008,06,24,00,22,15.30
2008,06,24,00,23,15.30
2008,06,24,00,24,15.30
2008,06,24,00,25,15.20
2008,06,24,00,26,15.20
2008,06,24,00,27,15.20
2008,06,24,00,28,15.20
2008,06,24,00,29,15.20
2008,06,24,00,30,15.20
2008,06,24,00,31,15.20
2008,06,24,00,32,15.20
2008,06,24,00,33,15.20
2008,06,24,00,34,15.20
2008,06,24,00,35,15.10
2008,06,24,00,36,15.10
2008,06,24,00,37,15.10
2008,06,24,00,38,15.10
2008,06,24,00,39,15.10
2008,06,24,00,40,15.10
2008,06,24,00,41,15.10
2008,06,24,00,42,15.10
2008,06,24,00,43,15.10
2008,06,24,00,44,15.00
2008,06,24,00,45,15.00
2008,06,24,00,46,15.00
2008,06,24,00,47,15.00
2008,06,24,00,48,15.00
2008,06,24,00,49,15.00
2008,06,24,00,50,15.00
2008,06,24,00,51,15.00
2008,06,24,00,52,15.00
2008,06,24,00,53,15.00
2008,06,24,00,54,15.00
2008,06,24,00,55,15.00
2008,06,24,00,56,15.00
2008,06,24,00,57,15.00
2008,06,24,00,58,15.00
2008,06,24,00,59,15.00
2008,06,24,01,00,15.00
2008,06,24,01,01,15.00
2008,06,24,01,02,15.00
2008,06,24,01,03,15.00
2008,06,24,01,04,15.00
2008,06,24,01,05,15.00
2008,06,24,01,06,15.00
2008,06,24,01,07,14.90
2008,06,24,01,08,14.90
2008,06,24,01,09,14.90
2008,06,24,01,10,14.80
2008,06,24,01,11,14.80
2008,06,24,01,12,14.80
2008,06,24,01,13,14.80
2008,06,24,01,14,14.80
2008,06,24,01,15,14.80
2008,06,24,01,16,14.80
2008,06,24,01,17,14.80
2008,06,24,01,18,14.80
2008,06,24,01,19,14.80
2008,06,24,01,20,14.80
2008,06,24,01,21,14.80
2008,06,24,01,22,14.80
2008,06,24,01,23,14.80
2008,06,24,01,24,14.80
2008,06,24,01,25,14.80
2008,06,24,01,26,14.80
2008,06,24,01,27,14.80
2008,06,24,01,28,14.80
2008,06,24,01,29,14.80
2008,06,24,01,30,14.80
2008,06,24,01,31,14.80
2008,06,24,01,32,14.80
2008,06,24,01,33,14.80
2008,06,24,01,34,14.80
2008,06,24,01,35,14.70
2008,06,24,01,36,14.70
2008,06,24,01,37,14.70
2008,06,24,01,38,14.70
2008,06,24,01,39,14.70
2008,06,24,01,40,14.70
2008,06,24,01,41,14.70
2008,06,24,01,42,14.70
2008,06,24,01,43,14.70
2008,06,24,01,44,14.70
2008,06,24,01,45,14.70
2008,06,24,01,46,14.70
2008,06,24,01,47,14.60
2008,06,24,01,48,14.60
2008,06,24,01,49,14.60
2008,06,24,01,50,14.60
2008,06,24,01,51,14.60
2008,06,24,01,52,14.60
2008,06,24,01,53,14.60
2008,06,24,01,54,14.60
2008,06,24,01,55,14.60
2008,06,24,01,56,14.60
2008,06,24,01,57,14.60
2008,06,24,01,58,14.50
2008,06,24,01,59,14.50
2008,06,24,02,00,14.50
2008,06,24,02,01,14.50
2008,06,24,02,02,14.50
2008,06,24,02,03,14.50
2008,06,24,02,04,14.50
2008,06,24,02,05,14.50
2008,06,24,02,06,14.50
2008,06,24,02,07,14.40
2008,06,24,02,08,14.40
2008,06,24,02,09,14.40
2008,06,24,02,10,14.40
2008,06,24,02,11,14.40
2008,06,24,02,12,14.40
2008,06,24,02,13,14.40
2008,06,24,02,14,14.40
2008,06,24,02,15,14.40
2008,06,24,02,16,14.40
2008,06,24,02,17,14.40
2008,06,24,02,18,14.40
2008,06,24,02,19,14.40
2008,06,24,02,20,14.40
2008,06,24,02,21,14.40
2008,06,24,02,22,14.40
2008,06,24,02,23,14.40
2008,06,24,02,24,14.40
2008,06,24,02,25,14.40
2008,06,24,02,26,14.40
2008,06,24,02,27,14.40
2008,06,24,02,28,14.40
2008,06,24,02,29,14.40
2008,06,24,02,30,14.40
2008,06,24,02,31,14.40
2008,06,24,02,32,14.40
2008,06,24,02,33,14.40
2008,06,24,02,34,14.50
2008,06,24,02,35,14.50
2008,06,24,02,36,14.50
2008,06,24,02,37,14.50
2008,06,24,02,38,14.60
2008,06,24,02,39,14.60
2008,06,24,02,40,14.60
2008,06,24,02,41,14.60
2008,06,24,02,42,14.60
2008,06,24,02,43,14.60
2008,06,24,02,44,14.60
2008,06,24,02,45,14.60
2008,06,24,02,46,14.60
2008,06,24,02,47,14.60
2008,06,24,02,48,14.60
2008,06,24,02,49,14.60
2008,06,24,02,50,14.60
2008,06,24,02,51,14.60
2008,06,24,02,52,14.60
2008,06,24,02,53,14.60
2008,06,24,02,54,14.60
2008,06,24,02,55,14.60
2008,06,24,02,56,14.60
2008,06,24,02,57,14.60
2008,06,24,02,58,14.60
2008,06,24,02,59,14.60
2008,06,24,03,00,14.60
2008,06,24,03,01,14.60
2008,06,24,03,02,14.60
2008,06,24,03,03,14.60
2008,06,24,03,04,14.60
2008,06,24,03,05,14.60
2008,06,24,03,06,14.60
2008,06,24,03,07,14.60
2008,06,24,03,08,14.60
2008,06,24,03,09,14.60
2008,06,24,03,10,14.50
2008,06,24,03,11,14.50
2008,06,24,03,12,14.50
2008,06,24,03,13,14.50
2008,06,24,03,14,14.50
2008,06,24,03,15,14.40
2008,06,24,03,16,14.40
2008,06,24,03,17,14.40
2008,06,24,03,18,14.40
2008,06,24,03,19,14.30
2008,06,24,03,20,14.30
2008,06,24,03,21,14.30
2008,06,24,03,22,14.20
2008,06,24,03,23,14.20
2008,06,24,03,24,14.20
2008,06,24,03,25,14.20
2008,06,24,03,26,14.20
2008,06,24,03,27,14.20
2008,06,24,03,28,14.20
2008,06,24,03,29,14.20
2008,06,24,03,30,14.20
2008,06,24,03,31,14.20
2008,06,24,03,32,14.20
2008,06,24,03,33,14.20
2008,06,24,03,34,14.20
2008,06,24,03,35,14.20
2008,06,24,03,36,14.20
2008,06,24,03,37,14.20
2008,06,24,03,38,14.20
2008,06,24,03,39,14.20
2008,06,24,03,40,14.20
2008,06,24,03,41,14.20
2008,06,24,03,42,14.20
2008,06,24,03,43,14.20
2008,06,24,03,44,14.20
2008,06,24,03,45,14.20
2008,06,24,03,46,14.20
2008,06,24,03,47,14.20
2008,06,24,03,48,14.20
2008,06,24,03,49,14.20
2008,06,24,03,50,14.10
2008,06,24,03,51,14.10
2008,06,24,03,52,14.10
2008,06,24,03,53,14.00
2008,06,24,03,54,14.00
2008,06,24,03,55,14.00
2008,06,24,03,56,13.90
2008,06,24,03,57,13.90
2008,06,24,03,58,13.90
2008,06,24,03,59,13.80
2008,06,24,04,00,13.80
2008,06,24,04,01,13.80
2008,06,24,04,02,13.70
2008,06,24,04,03,13.70
2008,06,24,04,04,13.70
2008,06,24,04,05,13.70
2008,06,24,04,06,13.70
2008,06,24,04,07,13.80
2008,06,24,04,08,13.80
2008,06,24,04,09,13.80
2008,06,24,04,10,13.90
2008,06,24,04,11,13.90
2008,06,24,04,12,13.90
2008,06,24,04,13,13.90
2008,06,24,04,14,13.90
2008,06,24,04,15,13.90
2008,06,24,04,16,13.80
2008,06,24,04,17,13.80
2008,06,24,04,18,13.80
2008,06,24,04,19,13.80
2008,06,24,04,20,13.80
2008,06,24,04,21,13.70
2008,06,24,04,22,13.70
2008,06,24,04,23,13.70
2008,06,24,04,24,13.70
2008,06,24,04,25,13.70
2008,06,24,04,26,13.60
2008,06,24,04,27,13.60
2008,06,24,04,28,13.50
2008,06,24,04,29,13.40
2008,06,24,04,30,13.20
2008,06,24,04,31,13.20
2008,06,24,04,32,13.10
2008,06,24,04,33,12.90
2008,06,24,04,34,12.80
2008,06,24,04,35,12.80
2008,06,24,04,36,12.70
2008,06,24,04,37,12.60
2008,06,24,04,38,12.50
2008,06,24,04,39,12.50
2008,06,24,04,40,12.40
2008,06,24,04,41,12.40
2008,06,24,04,42,12.30
2008,06,24,04,43,12.30
2008,06,24,04,44,12.30
2008,06,24,04,45,12.30
2008,06,24,04,46,12.20
2008,06,24,04,47,12.20
2008,06,24,04,48,12.10
2008,06,24,04,49,12.10
2008,06,24,04,50,12.10
2008,06,24,04,51,12.10
2008,06,24,04,52,12.10
2008,06,24,04,53,12.00
2008,06,24,04,54,12.00
2008,06,24,04,55,12.00
2008,06,24,04,56,12.00
2008,06,24,04,57,12.00
2008,06,24,04,58,12.00
2008,06,24,04,59,12.00
2008,06,24,05,00,12.00
2008,06,24,05,01,12.00
2008,06,24,05,02,12.00
2008,06,24,05,03,12.00
2008,06,24,05,04,12.00
2008,06,24,05,05,12.00
2008,06,24,05,06,12.00
2008,06,24,05,07,12.00
2008,06,24,05,08,12.00
2008,06,24,05,09,12.00
2008,06,24,05,10,12.00
2008,06,24,05,11,12.00
2008,06,24,05,12,11.90
2008,06,24,05,13,11.90
2008,06,24,05,14,11.90
2008,06,24,05,15,11.90
2008,06,24,05,16,11.90
2008,06,24,05,17,11.90
2008,06,24,05,18,11.90
2008,06,24,05,19,11.90
2008,06,24,05,20,11.90
2008,06,24,05,21,11.90
2008,06,24,05,22,11.90
2008,06,24,05,23,11.90
2008,06,24,05,24,11.90
2008,06,24,05,25,11.90
2008,06,24,05,26,12.00
2008,06,24,05,27,12.00
2008,06,24,05,28,12.00
2008,06,24,05,29,12.00
2008,06,24,05,30,12.00
2008,06,24,05,31,12.00
2008,06,24,05,32,12.00
2008,06,24,05,33,12.00
2008,06,24,05,34,12.00
2008,06,24,05,35,12.00
2008,06,24,05,36,12.00
2008,06,24,05,37,12.00
2008,06,24,05,38,12.00
2008,06,24,05,39,12.00
2008,06,24,05,40,12.00
2008,06,24,05,41,12.00
2008,06,24,05,42,12.00
2008,06,24,05,43,12.00
2008,06,24,05,44,12.00
2008,06,24,05,45,12.00
2008,06,24,05,46,11.90
2008,06,24,05,47,11.90
2008,06,24,05,48,11.90
2008,06,24,05,49,11.80
2008,06,24,05,50,11.80
2008,06,24,05,51,11.80
2008,06,24,05,52,11.80
2008,06,24,05,53,11.80
2008,06,24,05,54,11.80
2008,06,24,05,55,11.80
2008,06,24,05,56,11.80
2008,06,24,05,57,11.80
2008,06,24,05,58,11.80
2008,06,24,05,59,11.80
2008,06,24,06,00,11.80
2008,06,24,06,01,11.80
2008,06,24,06,02,11.80
2008,06,24,06,03,11.80
2008,06,24,06,04,11.80
2008,06,24,06,05,11.80
2008,06,24,06,06,11.80
2008,06,24,06,07,11.80
2008,06,24,06,08,11.90
2008,06,24,06,09,11.90
2008,06,24,06,10,11.90
2008,06,24,06,11,11.90
2008,06,24,06,12,11.90
2008,06,24,06,13,12.00
2008,06,24,06,14,12.00
2008,06,24,06,15,12.00
2008,06,24,06,16,12.00
2008,06,24,06,17,12.00
2008,06,24,06,18,12.10
2008,06,24,06,19,12.10
2008,06,24,06,20,12.10
2008,06,24,06,21,12.10
2008,06,24,06,22,12.10
2008,06,24,06,23,12.10
2008,06,24,06,24,12.10
2008,06,24,06,25,12.10
2008,06,24,06,26,12.20
2008,06,24,06,27,12.20
2008,06,24,06,28,12.20
2008,06,24,06,29,12.10
2008,06,24,06,30,12.10
2008,06,24,06,31,12.10
2008,06,24,06,32,12.10
2008,06,24,06,33,12.10
2008,06,24,06,34,12.10
2008,06,24,06,35,12.10
2008,06,24,06,36,12.10
2008,06,24,06,37,12.10
2008,06,24,06,38,12.10
2008,06,24,06,39,12.00
2008,06,24,06,40,12.00
2008,06,24,06,41,12.00
2008,06,24,06,42,12.00
2008,06,24,06,43,12.00
2008,06,24,06,44,12.00
2008,06,24,06,45,12.00
2008,06,24,06,46,12.00
2008,06,24,06,47,12.00
2008,06,24,06,48,12.00
2008,06,24,06,49,12.00
2008,06,24,06,50,12.00
2008,06,24,06,51,12.00
2008,06,24,06,52,12.00
2008,06,24,06,53,12.00
2008,06,24,06,54,12.00
2008,06,24,06,55,12.00
2008,06,24,06,56,12.00
2008,06,24,06,57,12.00
2008,06,24,06,58,12.00
2008,06,24,06,59,12.00
2008,06,24,07,00,12.00
2008,06,24,07,01,12.00
2008,06,24,07,02,12.10
2008,06,24,07,03,12.10
2008,06,24,07,04,12.10
2008,06,24,07,05,12.10
2008,06,24,07,06,12.00
2008,06,24,07,07,12.00
2008,06,24,07,08,11.90
2008,06,24,07,09,11.90
2008,06,24,07,10,11.90
2008,06,24,07,11,11.90
2008,06,24,07,12,11.90
2008,06,24,07,13,11.90
2008,06,24,07,14,11.90
2008,06,24,07,15,11.90
2008,06,24,07,16,11.90
2008,06,24,07,17,11.90
2008,06,24,07,18,11.90
2008,06,24,07,19,11.90
2008,06,24,07,20,11.90
2008,06,24,07,21,11.90
2008,06,24,07,22,11.90
2008,06,24,07,23,11.90
2008,06,24,07,24,11.90
2008,06,24,07,25,11.90
2008,06,24,07,26,11.90
2008,06,24,07,27,11.90
2008,06,24,07,28,11.90
2008,06,24,07,29,11.90
2008,06,24,07,30,11.90
2008,06,24,07,31,11.90
2008,06,24,07,32,11.90
2008,06,24,07,33,11.80
2008,06,24,07,34,11.80
2008,06,24,07,35,11.80
2008,06,24,07,36,11.80
2008,06,24,07,37,11.90
2008,06,24,07,38,11.80
2008,06,24,07,39,11.90
2008,06,24,07,40,11.90
2008,06,24,07,41,11.80
2008,06,24,07,42,11.80
2008,06,24,07,43,11.80
2008,06,24,07,44,11.80
2008,06,24,07,45,11.80
2008,06,24,07,46,11.80
2008,06,24,07,47,11.80
2008,06,24,07,48,11.80
2008,06,24,07,49,11.80
2008,06,24,07,50,11.80
2008,06,24,07,51,11.80
2008,06,24,07,52,11.80
2008,06,24,07,53,11.80
2008,06,24,07,54,11.80
2008,06,24,07,55,11.80
2008,06,24,07,56,11.80
2008,06,24,07,57,11.80
2008,06,24,07,58,11.80
2008,06,24,07,59,11.80
2008,06,24,08,00,11.80
2008,06,24,08,01,11.80
2008,06,24,08,02,11.80
2008,06,24,08,03,11.80
2008,06,24,08,04,11.80
2008,06,24,08,05,11.90
2008,06,24,08,06,11.90
2008,06,24,08,07,11.90
2008,06,24,08,08,11.90
2008,06,24,08,09,11.90
2008,06,24,08,10,12.00
2008,06,24,08,11,12.00
2008,06,24,08,12,12.10
2008,06,24,08,13,12.00
2008,06,24,08,14,12.00
2008,06,24,08,15,11.90
2008,06,24,08,16,11.90
2008,06,24,08,17,11.90
2008,06,24,08,18,11.80
2008,06,24,08,19,11.80
2008,06,24,08,20,11.80
2008,06,24,08,21,11.80
2008,06,24,08,22,11.80
2008,06,24,08,23,11.80
2008,06,24,08,24,11.80
2008,06,24,08,25,11.80
2008,06,24,08,26,11.80
2008,06,24,08,27,11.80
2008,06,24,08,28,11.80
2008,06,24,08,29,11.80
2008,06,24,08,30,11.80
2008,06,24,08,31,11.80
2008,06,24,08,32,11.80
2008,06,24,08,33,11.90
2008,06,24,08,34,12.00
2008,06,24,08,35,12.10
2008,06,24,08,36,12.20
2008,06,24,08,37,12.30
2008,06,24,08,38,12.40
2008,06,24,08,39,12.40
2008,06,24,08,40,12.50
2008,06,24,08,41,12.50
2008,06,24,08,43,12.60
2008,06,24,08,44,12.70
2008,06,24,08,45,12.80
2008,06,24,08,46,12.90
2008,06,24,08,47,12.80
2008,06,24,08,48,12.80
2008,06,24,08,49,12.80
2008,06,24,08,50,12.70
2008,06,24,08,51,12.70
2008,06,24,08,52,12.70
2008,06,24,08,53,12.70
2008,06,24,08,54,12.70
2008,06,24,08,55,12.70
2008,06,24,08,56,12.70
2008,06,24,08,57,12.80
2008,06,24,08,58,12.80
2008,06,24,08,59,12.80
2008,06,24,09,00,12.80
2008,06,24,09,01,12.80
2008,06,24,09,02,12.80
2008,06,24,09,03,12.80
2008,06,24,09,04,12.80
2008,06,24,09,05,12.80
2008,06,24,09,06,12.90
2008,06,24,09,07,13.00
2008,06,24,09,08,13.10
2008,06,24,09,09,13.20
2008,06,24,09,10,13.20
2008,06,24,09,11,13.20
2008,06,24,09,12,13.20
2008,06,24,09,13,13.10
2008,06,24,09,14,13.10
2008,06,24,09,15,13.20
2008,06,24,09,16,13.20
2008,06,24,09,17,13.20
2008,06,24,09,18,13.20
2008,06,24,09,19,13.20
2008,06,24,09,20,13.20
2008,06,24,09,21,13.20
2008,06,24,09,22,13.30
2008,06,24,09,23,13.30
2008,06,24,09,24,13.20
2008,06,24,09,25,13.20
2008,06,24,09,26,13.30
2008,06,24,09,27,13.30
2008,06,24,09,28,13.50
2008,06,24,09,29,13.70
2008,06,24,09,30,13.90
2008,06,24,09,31,14.00
2008,06,24,09,32,14.10
2008,06,24,09,33,14.00
2008,06,24,09,34,14.00
2008,06,24,09,35,13.90
2008,06,24,09,36,13.90
2008,06,24,09,37,13.90
2008,06,24,09,38,13.90
2008,06,24,09,39,13.90
2008,06,24,09,40,13.90
2008,06,24,09,41,13.90
2008,06,24,09,42,13.80
2008,06,24,09,43,13.80
2008,06,24,09,44,13.80
2008,06,24,09,45,13.80
2008,06,24,09,46,13.80
2008,06,24,09,47,13.80
2008,06,24,09,48,13.90
2008,06,24,09,49,14.00
2008,06,24,09,50,14.00
2008,06,24,09,51,14.00
2008,06,24,09,52,14.00
2008,06,24,09,53,14.00
2008,06,24,09,54,14.20
2008,06,24,09,55,14.30
2008,06,24,09,56,14.40
2008,06,24,09,57,14.40
2008,06,24,09,58,14.40
2008,06,24,09,59,14.30
2008,06,24,10,00,14.20
2008,06,24,10,01,14.20
2008,06,24,10,02,14.20
2008,06,24,10,03,14.20
2008,06,24,10,04,14.20
2008,06,24,10,05,14.20
2008,06,24,10,06,14.20
2008,06,24,10,07,14.20
2008,06,24,10,08,14.30
2008,06,24,10,09,14.40
2008,06,24,10,10,14.40
2008,06,24,10,11,14.40
2008,06,24,10,12,14.30
2008,06,24,10,13,14.30
2008,06,24,10,14,14.30
2008,06,24,10,15,14.30
2008,06,24,10,16,14.40
2008,06,24,10,17,14.50
2008,06,24,10,18,14.50
2008,06,24,10,19,14.50
2008,06,24,10,20,14.60
2008,06,24,10,21,14.60
2008,06,24,10,22,14.60
2008,06,24,10,23,14.60
2008,06,24,10,24,14.60
2008,06,24,10,25,14.70
2008,06,24,10,26,14.70
2008,06,24,10,27,14.70
2008,06,24,10,28,14.80
2008,06,24,10,29,14.80
2008,06,24,10,30,14.80
2008,06,24,10,31,14.90
2008,06,24,10,32,14.90
2008,06,24,10,33,15.00
2008,06,24,10,34,15.10
2008,06,24,10,35,15.20
2008,06,24,10,36,15.20
2008,06,24,10,37,15.10
2008,06,24,10,38,15.10
2008,06,24,10,39,15.00
2008,06,24,10,56,16.10
2008,06,24,10,57,16.00
2008,06,24,10,58,15.80
2008,06,24,10,59,15.70
2008,06,24,11,00,15.70
2008,06,24,11,01,15.60
2008,06,24,11,02,15.50
2008,06,24,11,03,15.50
2008,06,24,11,04,15.50
2008,06,24,11,05,15.50
2008,06,24,11,06,15.60
2008,06,24,11,07,15.70
2008,06,24,11,08,15.80
2008,06,24,11,09,15.90
2008,06,24,11,10,16.00
2008,06,24,11,11,16.10
2008,06,24,11,12,16.10
2008,06,24,11,13,16.00
2008,06,24,11,14,16.00
2008,06,24,11,15,16.10
2008,06,24,11,16,16.00
2008,06,24,11,17,15.90
2008,06,24,11,18,15.90
2008,06,24,11,19,16.00
2008,06,24,11,20,16.10
2008,06,24,11,21,16.10
2008,06,24,11,22,16.10
2008,06,24,11,23,16.10
2008,06,24,11,24,16.20
2008,06,24,11,25,16.20
2008,06,24,11,26,16.10
2008,06,24,11,27,15.90
2008,06,24,11,28,16.00
2008,06,24,11,29,16.10
2008,06,24,11,30,16.10
2008,06,24,11,31,16.20
2008,06,24,11,32,16.20
2008,06,24,11,33,16.10
2008,06,24,11,34,15.90
2008,06,24,11,35,15.80
2008,06,24,11,36,15.70
2008,06,24,11,37,15.70
2008,06,24,11,38,15.70
2008,06,24,11,39,15.80
2008,06,24,11,40,15.80
2008,06,24,11,41,15.80
2008,06,24,11,42,15.80
2008,06,24,11,43,15.80
2008,06,24,11,44,15.80
2008,06,24,11,45,15.90
2008,06,24,11,46,15.90
2008,06,24,11,47,15.80
2008,06,24,11,48,15.80
2008,06,24,11,49,15.80
2008,06,24,11,50,15.60
2008,06,24,11,51,15.60
2008,06,24,11,52,15.50
2008,06,24,11,53,15.50
2008,06,24,11,54,15.60
2008,06,24,11,55,15.70
2008,06,24,11,56,15.70
2008,06,24,11,57,15.70
2008,06,24,11,58,15.60
2008,06,24,11,59,15.50
2008,06,24,12,00,15.60
2008,06,24,12,01,15.70
2008,06,24,12,02,15.70
2008,06,24,12,03,15.80
2008,06,24,12,04,15.80
2008,06,24,12,05,15.80
2008,06,24,12,06,15.90
2008,06,24,12,07,16.10
2008,06,24,12,08,16.10
2008,06,24,12,09,16.10
2008,06,24,12,10,16.10
2008,06,24,12,11,16.10
2008,06,24,12,12,16.10
2008,06,24,12,13,16.20
2008,06,24,12,14,16.30
2008,06,24,12,15,16.30
2008,06,24,12,16,16.30
2008,06,24,12,17,16.20
2008,06,24,12,18,16.20
2008,06,24,12,19,16.30
2008,06,24,12,20,16.30
2008,06,24,12,21,16.30
2008,06,24,12,22,16.30
2008,06,24,12,23,16.30
2008,06,24,12,24,16.30
2008,06,24,12,25,16.40
2008,06,24,12,26,16.40
2008,06,24,12,27,16.40
2008,06,24,12,28,16.60
2008,06,24,12,29,16.70
2008,06,24,12,30,16.70
2008,06,24,12,31,16.70
2008,06,24,12,32,16.90
2008,06,24,12,33,17.10
2008,06,24,12,34,17.10
2008,06,24,12,35,17.20
2008,06,24,12,36,17.30
2008,06,24,12,37,17.30
2008,06,24,12,38,17.30
2008,06,24,12,39,17.40
2008,06,24,12,40,17.40
2008,06,24,12,41,17.40
2008,06,24,12,42,17.40
2008,06,24,12,43,17.50
2008,06,24,12,44,17.60
2008,06,24,12,45,17.70
2008,06,24,12,46,17.60
2008,06,24,12,47,17.50
2008,06,24,12,48,17.50
2008,06,24,12,49,17.50
2008,06,24,12,50,17.50
2008,06,24,12,51,17.60
2008,06,24,12,52,17.60
2008,06,24,12,53,17.50
2008,06,24,12,54,17.50
2008,06,24,12,55,17.40
2008,06,24,12,56,17.40
2008,06,24,12,57,17.40
2008,06,24,12,58,17.60
2008,06,24,12,59,17.80
2008,06,24,13,00,17.90
2008,06,24,13,01,18.00
2008,06,24,13,02,18.10
2008,06,24,13,03,18.10
2008,06,24,13,04,18.00
2008,06,24,13,05,17.90
2008,06,24,13,06,17.90
2008,06,24,13,07,17.80
2008,06,24,13,08,17.80
2008,06,24,13,09,17.70
2008,06,24,13,10,17.70
2008,06,24,13,11,17.60
2008,06,24,13,12,17.50
2008,06,24,13,13,17.50
2008,06,24,13,14,17.30
2008,06,24,13,15,17.30
2008,06,24,13,16,17.30
2008,06,24,13,17,17.30
2008,06,24,13,18,17.30
2008,06,24,13,19,17.40
2008,06,24,13,20,17.40
2008,06,24,13,21,17.40
2008,06,24,13,22,17.30
2008,06,24,13,23,17.30
2008,06,24,13,24,17.30
2008,06,24,13,25,17.30
2008,06,24,13,26,17.30
2008,06,24,13,27,17.30
2008,06,24,13,28,17.20
2008,06,24,13,29,17.20
2008,06,24,13,30,17.40
2008,06,24,13,31,17.50
2008,06,24,13,32,17.70
2008,06,24,13,33,17.80
2008,06,24,13,34,17.80
2008,06,24,13,35,17.80
2008,06,24,13,36,17.90
2008,06,24,13,37,17.90
2008,06,24,13,38,17.90
2008,06,24,13,39,17.90
2008,06,24,13,40,17.80
2008,06,24,13,41,17.70
2008,06,24,13,42,17.60
2008,06,24,13,43,17.60
2008,06,24,13,44,17.60
2008,06,24,13,45,17.50
2008,06,24,13,46,17.50
2008,06,24,13,47,17.40
2008,06,24,13,48,17.50
2008,06,24,13,49,17.50
2008,06,24,13,50,17.60
2008,06,24,13,51,17.60
2008,06,24,13,52,17.50
2008,06,24,13,53,17.40
2008,06,24,13,54,17.40
2008,06,24,13,55,17.30
2008,06,24,13,56,17.30
2008,06,24,13,57,17.30
2008,06,24,13,58,17.30
2008,06,24,13,59,17.30
2008,06,24,14,00,17.30
2008,06,24,14,01,17.30
2008,06,24,14,02,17.40
2008,06,24,14,03,17.40
2008,06,24,14,04,17.50
2008,06,24,14,05,17.50
2008,06,24,14,06,17.50
2008,06,24,14,07,17.60
2008,06,24,14,08,17.70
2008,06,24,14,09,17.70
2008,06,24,14,10,17.60
2008,06,24,14,11,17.60
2008,06,24,14,12,17.70
2008,06,24,14,13,17.90
2008,06,24,14,14,18.00
2008,06,24,14,15,18.10
2008,06,24,14,16,18.10
2008,06,24,14,17,18.10
2008,06,24,14,18,18.00
2008,06,24,14,19,17.90
2008,06,24,14,20,17.90
2008,06,24,14,21,17.90
2008,06,24,14,22,18.00
2008,06,24,14,23,18.20
2008,06,24,14,24,18.40
2008,06,24,14,25,18.40
2008,06,24,14,26,18.50
2008,06,24,14,27,18.60
2008,06,24,14,28,18.60
2008,06,24,14,29,18.70
2008,06,24,14,30,18.70
2008,06,24,14,31,18.80
2008,06,24,14,32,18.90
2008,06,24,14,33,18.90
2008,06,24,14,34,18.80
2008,06,24,14,35,18.80
2008,06,24,14,36,18.70
2008,06,24,14,37,18.60
2008,06,24,14,38,18.50
2008,06,24,14,39,18.50
2008,06,24,14,40,18.50
2008,06,24,14,41,18.50
2008,06,24,14,42,18.50
2008,06,24,14,43,18.60
2008,06,24,14,44,18.70
2008,06,24,14,45,18.80
2008,06,24,14,46,18.90
2008,06,24,14,47,18.80
2008,06,24,14,48,18.80
2008,06,24,14,49,18.80
2008,06,24,14,50,18.80
2008,06,24,14,51,18.70
2008,06,24,14,52,18.70
2008,06,24,14,53,18.70
2008,06,24,14,54,18.70
2008,06,24,14,55,18.70
2008,06,24,14,56,18.70
2008,06,24,14,57,18.60
2008,06,24,14,58,18.60
2008,06,24,14,59,18.60
2008,06,24,15,00,18.70
2008,06,24,15,01,18.80
2008,06,24,15,02,18.90
2008,06,24,15,03,18.90
2008,06,24,15,04,18.90
2008,06,24,15,05,18.90
2008,06,24,15,06,19.00
2008,06,24,15,07,19.10
2008,06,24,15,08,19.10
2008,06,24,15,09,19.10
2008,06,24,15,10,19.10
2008,06,24,15,11,19.10
2008,06,24,15,12,19.10
2008,06,24,15,13,19.20
2008,06,24,15,14,19.30
2008,06,24,15,15,19.40
2008,06,24,15,16,19.40
2008,06,24,15,17,19.40
2008,06,24,15,18,19.50
2008,06,24,15,19,19.60
2008,06,24,15,20,19.70
2008,06,24,15,21,19.70
2008,06,24,15,22,19.50
2008,06,24,15,23,19.30
2008,06,24,15,24,19.30
2008,06,24,15,25,19.20
2008,06,24,15,26,19.10
2008,06,24,15,27,19.20
2008,06,24,15,28,19.10
2008,06,24,15,29,19.10
2008,06,24,15,30,19.00
2008,06,24,15,31,19.00
2008,06,24,15,32,19.10
2008,06,24,15,33,19.10
2008,06,24,15,34,19.10
2008,06,24,15,35,19.20
2008,06,24,15,36,19.30
2008,06,24,15,37,19.30
2008,06,24,15,38,19.30
2008,06,24,15,39,19.50
2008,06,24,15,40,19.60
2008,06,24,15,41,19.70
2008,06,24,15,42,19.80
2008,06,24,15,43,19.80
2008,06,24,15,44,19.90
2008,06,24,15,45,19.90
2008,06,24,15,46,19.80
2008,06,24,15,47,19.70
2008,06,24,15,48,19.80
2008,06,24,15,49,19.80
2008,06,24,15,50,19.90
2008,06,24,15,51,19.90
2008,06,24,15,52,19.90
2008,06,24,15,53,19.80
2008,06,24,15,54,19.70
2008,06,24,15,55,19.60
2008,06,24,15,56,19.60
2008,06,24,15,57,19.60
2008,06,24,15,58,19.70
2008,06,24,15,59,19.80
2008,06,24,16,00,19.60
2008,06,24,16,01,19.50
2008,06,24,16,02,19.50
2008,06,24,16,03,19.60
2008,06,24,16,04,19.70
2008,06,24,16,05,19.80
2008,06,24,16,06,19.90
2008,06,24,16,07,19.90
2008,06,24,16,08,19.90
2008,06,24,16,09,20.00
2008,06,24,16,10,20.10
2008,06,24,16,11,20.10
2008,06,24,16,12,19.90
2008,06,24,16,13,19.80
2008,06,24,16,14,19.90
2008,06,24,16,15,19.90
2008,06,24,16,16,19.80
2008,06,24,16,17,19.90
2008,06,24,16,18,19.90
2008,06,24,16,19,19.80
2008,06,24,16,20,19.70
2008,06,24,16,21,19.60
2008,06,24,16,22,19.60
2008,06,24,16,23,19.40
2008,06,24,16,24,19.40
2008,06,24,16,25,19.40
2008,06,24,16,26,19.40
2008,06,24,16,27,19.50
2008,06,24,16,28,19.50
2008,06,24,16,29,19.40
2008,06,24,16,30,19.20
2008,06,24,16,31,19.10
2008,06,24,16,32,19.00
2008,06,24,16,33,18.90
2008,06,24,16,34,18.90
2008,06,24,16,35,18.90
2008,06,24,16,36,18.90
2008,06,24,16,37,18.90
2008,06,24,16,38,19.00
2008,06,24,16,39,19.10
2008,06,24,16,40,18.90
2008,06,24,16,41,18.90
2008,06,24,16,42,18.80
2008,06,24,16,43,18.70
2008,06,24,16,44,18.60
2008,06,24,16,45,18.50
2008,06,24,16,46,18.30
2008,06,24,16,47,18.30
2008,06,24,16,48,18.30
2008,06,24,16,49,18.30
2008,06,24,16,50,18.40
2008,06,24,16,51,18.50
2008,06,24,16,52,18.60
2008,06,24,16,53,18.70
2008,06,24,16,54,18.80
2008,06,24,16,55,18.90
2008,06,24,16,56,18.90
2008,06,24,16,57,18.90
2008,06,24,16,58,18.70
2008,06,24,16,59,18.60
2008,06,24,17,00,18.60
2008,06,24,17,01,18.50
2008,06,24,17,02,18.50
2008,06,24,17,03,18.40
2008,06,24,17,04,18.20
2008,06,24,17,05,18.20
2008,06,24,17,06,18.10
2008,06,24,17,07,17.90
2008,06,24,17,08,17.90
2008,06,24,17,09,17.90
2008,06,24,17,10,18.00
2008,06,24,17,11,18.10
2008,06,24,17,12,18.10
2008,06,24,17,13,18.10
2008,06,24,17,14,18.10
2008,06,24,17,15,18.00
2008,06,24,17,16,17.90
2008,06,24,17,17,17.70
2008,06,24,17,18,17.50
2008,06,24,17,19,17.50
2008,06,24,17,20,17.60
2008,06,24,17,21,17.70
2008,06,24,17,22,17.70
2008,06,24,17,23,17.70
2008,06,24,17,24,17.70
2008,06,24,17,25,17.80
2008,06,24,17,26,17.80
2008,06,24,17,27,17.80
2008,06,24,17,28,17.80
2008,06,24,17,29,17.70
2008,06,24,17,30,17.70
2008,06,24,17,31,17.70
2008,06,24,17,32,17.60
2008,06,24,17,33,17.70
2008,06,24,17,34,17.70
2008,06,24,17,35,17.70
2008,06,24,17,36,17.70